Regional Weather Roundup
Issued by NWS Cleveland, OH

Home | Current Version | Previous Version | Graphics & Text | Print | Product List | Glossary On
Versions: 1 2 3 4 5 6 7 8 9 10 11 12 13 14 15 16 17 18 19 20 21 22 23 24 25 26 27 28 29 30 31 32 33 34 35 36 37 38 39 40 41 42 43 44 45 46 47 48 49 50
000
ASUS41 KCLE 101102
RWRCLE
OHIO REGIONAL WEATHER ROUNDUP
NATIONAL WEATHER SERVICE CLEVELAND, OH
600 AM EST SAT DEC 10 2016

NOTE: "FAIR" INDICATES FEW OR NO CLOUDS BELOW 12,000 FEET WITH NO
SIGNIFICANT WEATHER AND/OR OBSTRUCTIONS TO VISIBILITY.

OHZ001>008-015>018-024>027-034-035-043-044-101200-
   NORTHWEST OHIO

CITY           SKY/WX    TMP DP  RH WIND       PRES   REMARKS
DEFIANCE       MOCLDY    21  12  68 W5        30.49R WCI  15
FINDLAY        MOCLDY    22  13  68 W12       30.47S WCI  10
TOLEDO EXPRESS PTCLDY    21  15  78 W12       30.47R WCI   9
TOLEDO EXEC    MOCLDY    23  16  74 W10       30.47R WCI  12
LIMA           PTCLDY    20  15  81 SW10      30.48S WCI   9
$$

OHZ009>014-019>023-028>033-038-089-101200-
   NORTHEAST OHIO

CITY           SKY/WX    TMP DP  RH WIND       PRES   REMARKS
CLE-HOPKINS    CLOUDY    25  15  66 W16       30.47R WCI  12
CLE-LAKEFRONT  CLOUDY    25  17  72 SW22G29   30.43R WCI  10
CUY CO. ARPT   NOT AVBL
LORAIN-ELYRIA  CLOUDY    22  14  71 W14       30.45R WCI   9
ASHTABULA      LGT SNOW  23  21  92 SW10      30.39R VSB 3/4 WCI  12
AKRON-CANTON   FLURRIES  23  15  71 W12       30.43R WCI  12
WOOSTER        CLOUDY    22  15  75 W13       30.45R WCI  10
MANSFIELD      CLOUDY    20  15  81 SW9       30.44S WCI   9
YOUNGSTOWN     CLOUDY    24  16  71 SW16      30.39R WCI  11
$$

OHZ042-051>053-060>062-070>072-077>081-101200-
  SOUTHWEST OHIO

CITY           SKY/WX    TMP DP  RH WIND       PRES   REMARKS
CINC-COVINGTON CLOUDY    20  16  84 W3        30.53S
CINC-LUNKEN    CLOUDY    22  17  81 VRB3      30.58R
HAMILTON       CLOUDY    22  17  81 SW5       30.56R WCI  16
DAYTON         CLOUDY    22  18  85 SW7       30.52R WCI  13
WRIGHT-PAT AFB NOT AVBL
DAYTON GENERAL CLOUDY    22  16  78 SW5       30.51R WCI  16
WILMINGTON     CLOUDY    21  17  84 W6        30.51R WCI  13
$$

OHZ036-037-039>041-045>050-054>059-063>069-073>076-082>088-101200-
  CENTRAL AND SOUTHEAST OHIO

CITY           SKY/WX    TMP DP  RH WIND       PRES   REMARKS
COLUMBUS       CLOUDY    24  17  74 W9        30.50S WCI  14
OSU AIRPORT    CLOUDY    23  16  74 W8        30.50R WCI  14
BOLTON FIELD   FLURRIES  22  19  86 W8        30.51R WCI  13
RICKENBACK AFB   N/A     23  18  83 W9        30.51S WCI  13
NEWARK         LGT SNOW  24  18  77 SW9       30.49S WCI  14
MARION         CLEAR     21  14  74 W8        30.48S WCI  11
LANCASTER      CLOUDY    23  18  81 SW6       30.51F WCI  16
ZANESVILLE     CLOUDY    23  18  81 SW6       30.49F WCI  16
NEW PHILLY     CLOUDY    24  18  77 W8        30.49  WCI  15
$$



USA.gov is the U.S. government's official web portal to all federal, state and local government web resources and services.